, OR

(GMT )
Tillamook

Weather History for KTMK - October, 2013

Change the Weather History Date:

Sunday, October 13, 2013

  Actual Average Record
Temperature  
Mean Temperature 48 °F -  
Max Temperature 62 °F - - ()
Min Temperature 35 °F - - ()
Degree Days  
Heating Degree Days 16    
Moisture  
Dew Point 44 °F    
Average Humidity 89    
Maximum Humidity 100    
Minimum Humidity 63    
Precipitation  
Precipitation 0.01 in - - ()
Sea Level Pressure  
Sea Level Pressure 30.26 in    
Wind  
Wind Speed 1 mph (WNW)    
Max Wind Speed 12 mph    
Max Gust Speed 17 mph    
Visibility 6 miles    
Events Fog    
Averages and records for this station are not official NWS values.
T = Trace of Precipitation, MM = Missing Value Source: NWS Daily Summary

Daily Weather History Graph

Daily Weather History Graph

Search for Another Location

Airport or City:

Trip Planner

Search our weather history database for the weather conditions in past years. The results will help you decide how hot, cold, wet, or windy it might be!

Date:

Astronomy

Oct. 13, 2013 Rise Set
Actual Time 8:29 AM MDT 7:32 PM MDT
Civil Twilight 7:59 AM MDT 8:02 PM MDT
Nautical Twilight 7:25 AM MDT 8:36 PM MDT
Astronomical Twilight 6:50 AM MDT 9:10 PM MDT
Moon 4:41 PM MDT (10/13) 2:30 AM MDT (10/13)
Length of Visible Light 12h 02m
Length of Day
11h 03m
Waxing Gibbous, 70% of the Moon is Illuminated
Oct 13
Waxing Gibbous
Oct 18
Full
Oct 26
Last Quarter
Nov 3
New
Nov 9
First Quarter

Hourly Weather History & Observations

Time (MDT) Temp. Dew Point Humidity Pressure Visibility Wind Dir Wind Speed Gust Speed Precip Events Conditions
12:15 AM 44.6 °F 44.6 °F 100% 30.20 in 0.2 mi Calm Calm - N/A Fog Fog
12:35 AM 42.8 °F 42.8 °F 100% 30.20 in 0.2 mi Calm Calm - N/A Fog Fog
12:55 AM 42.8 °F 42.8 °F 100% 30.20 in 0.2 mi Calm Calm - N/A Fog Fog
1:15 AM 42.8 °F 42.8 °F 100% 30.20 in 2.5 mi Calm Calm - N/A   Scattered Clouds
1:35 AM 41.0 °F 41.0 °F 100% 30.20 in 4.0 mi Calm Calm - N/A   Scattered Clouds
1:55 AM 42.8 °F 42.8 °F 100% 30.21 in 3.0 mi Calm Calm - N/A   Scattered Clouds
2:15 AM 41.0 °F 41.0 °F 100% 30.22 in 3.0 mi Calm Calm - N/A   Clear
2:35 AM 41.0 °F 41.0 °F 100% 30.22 in 0.5 mi Calm Calm - N/A Fog Fog
2:55 AM 41.0 °F 41.0 °F 100% 30.22 in 0.8 mi Calm Calm - N/A   Mist
3:15 AM 41.0 °F 41.0 °F 100% 30.22 in 0.5 mi Calm Calm - N/A Fog Fog
3:35 AM 39.2 °F 39.2 °F 100% 30.23 in 0.5 mi Calm Calm - N/A Fog Fog
3:55 AM 39.2 °F 39.2 °F 100% 30.23 in 0.5 mi Calm Calm - N/A Fog Fog
4:15 AM 41.0 °F 41.0 °F 100% 30.23 in 0.2 mi Calm Calm - N/A Fog Fog
4:35 AM 41.0 °F 41.0 °F 100% 30.23 in 0.2 mi Calm Calm - N/A Fog Fog
4:55 AM 42.8 °F 41.0 °F 93% 30.23 in 0.2 mi Calm Calm - N/A Fog Fog
5:15 AM 42.8 °F 42.8 °F 100% 30.24 in 0.2 mi Calm Calm - N/A Fog Fog
5:35 AM 41.0 °F 41.0 °F 100% 30.24 in 1.5 mi Calm Calm - N/A   Overcast
5:55 AM 41.0 °F 41.0 °F 100% 30.24 in 0.2 mi Calm Calm - N/A Fog Fog
6:15 AM 37.4 °F 37.4 °F 100% 30.25 in 0.5 mi Calm Calm - N/A Fog Fog
6:35 AM 37.4 °F 37.4 °F 100% 30.25 in 0.5 mi Calm Calm - N/A Fog Fog
6:55 AM 37.4 °F 37.4 °F 100% 30.25 in 0.2 mi Calm Calm - N/A Fog Fog
7:15 AM 37.4 °F 37.4 °F 100% 30.25 in 2.0 mi Calm Calm - N/A   Mostly Cloudy
7:35 AM 39.2 °F 39.2 °F 100% 30.25 in 10.0 mi Calm Calm - N/A   Clear
7:55 AM 37.4 °F 37.4 °F 100% 30.25 in 3.0 mi Calm Calm - N/A   Clear
8:15 AM 37.4 °F 37.4 °F 100% 30.25 in 5.0 mi Calm Calm - N/A   Clear
8:35 AM 37.4 °F 37.4 °F 100% 30.25 in 1.0 mi Calm Calm - 0.01 in   Scattered Clouds
8:55 AM 37.4 °F 37.4 °F 100% 30.26 in 10.0 mi Calm Calm - 0.01 in   Clear
9:15 AM 35.6 °F 35.6 °F 100% 30.27 in 7.0 mi Calm Calm - N/A   Clear
9:35 AM 37.4 °F 37.4 °F 100% 30.27 in 0.5 mi Calm Calm - N/A Fog Fog
9:55 AM 41.0 °F 41.0 °F 100% 30.28 in 10.0 mi Calm Calm - N/A   Clear
10:15 AM 41.0 °F 41.0 °F 100% 30.28 in 10.0 mi Calm Calm - N/A   Clear
10:35 AM 42.8 °F 42.8 °F 100% 30.28 in 10.0 mi Calm Calm - N/A   Clear
10:55 AM 44.6 °F 42.8 °F 93% 30.29 in 10.0 mi Calm Calm - N/A   Clear
11:15 AM 44.6 °F 42.8 °F 93% 30.29 in 10.0 mi Calm Calm - N/A   Clear
11:35 AM 46.4 °F 44.6 °F 93% 30.29 in 10.0 mi Calm Calm - N/A   Clear
11:55 AM 48.2 °F 44.6 °F 87% 30.29 in 10.0 mi Calm Calm - N/A   Clear
12:15 PM 50.0 °F 46.4 °F 87% 30.28 in 10.0 mi Calm Calm - N/A   Clear
12:35 PM 51.8 °F 44.6 °F 76% 30.28 in 10.0 mi Calm Calm - N/A   Clear
12:55 PM 53.6 °F 46.4 °F 77% 30.28 in 10.0 mi Calm Calm - N/A   Clear
1:15 PM 55.4 °F 46.4 °F 72% 30.28 in 10.0 mi Calm Calm - N/A   Clear
1:35 PM 55.4 °F 46.4 °F 72% 30.28 in 10.0 mi Calm Calm - N/A   Clear
1:55 PM 57.2 °F 46.4 °F 67% 30.27 in 10.0 mi Calm Calm - N/A   Clear
2:15 PM 59.0 °F 46.4 °F 63% 30.27 in 10.0 mi Calm Calm - N/A   Clear
2:35 PM 59.0 °F 46.4 °F 63% 30.27 in 10.0 mi Calm Calm - N/A   Clear
2:55 PM 60.8 °F 48.2 °F 63% 30.26 in 10.0 mi Calm Calm - N/A   Clear
3:15 PM 60.8 °F 48.2 °F 63% 30.26 in 10.0 mi Calm Calm - N/A   Clear
3:35 PM 60.8 °F 48.2 °F 63% 30.26 in 10.0 mi Calm Calm - N/A   Clear
3:55 PM 60.8 °F 50.0 °F 68% 30.26 in 10.0 mi NW 8.1 mph - N/A   Clear
4:15 PM 62.6 °F 50.0 °F 63% 30.26 in 10.0 mi West 4.6 mph - N/A   Clear
4:35 PM 60.8 °F 48.2 °F 63% 30.26 in 10.0 mi Calm Calm - N/A   Clear
4:55 PM 60.8 °F 50.0 °F 68% 30.26 in 10.0 mi Calm Calm - N/A   Clear
5:15 PM 62.6 °F 50.0 °F 63% 30.26 in 10.0 mi Calm Calm - N/A   Clear
5:35 PM 60.8 °F 50.0 °F 68% 30.27 in 10.0 mi NW 11.5 mph - N/A   Clear
5:55 PM 60.8 °F 50.0 °F 68% 30.27 in 10.0 mi WNW 10.4 mph - N/A   Clear
6:15 PM 59.0 °F 50.0 °F 72% 30.27 in 10.0 mi WNW 11.5 mph 17.3 mph N/A   Clear
6:35 PM 59.0 °F 50.0 °F 72% 30.27 in 10.0 mi WNW 10.4 mph - N/A   Clear
6:55 PM 57.2 °F 50.0 °F 77% 30.27 in 10.0 mi WNW 6.9 mph - N/A   Clear
7:15 PM 57.2 °F 50.0 °F 77% 30.27 in 10.0 mi Calm Calm - N/A   Clear
7:35 PM 55.4 °F 50.0 °F 82% 30.28 in 10.0 mi Calm Calm - N/A   Clear
7:55 PM 55.4 °F 50.0 °F 82% 30.28 in 10.0 mi Calm Calm - N/A   Clear
8:15 PM 53.6 °F 50.0 °F 88% 30.29 in 10.0 mi Calm Calm - N/A   Clear
8:35 PM 51.8 °F 48.2 °F 88% 30.29 in 10.0 mi Calm Calm - N/A   Clear
8:55 PM 50.0 °F 46.4 °F 87% 30.30 in 10.0 mi Calm Calm - N/A   Clear
9:15 PM 50.0 °F 46.4 °F 87% 30.30 in 10.0 mi Calm Calm - N/A   Clear
9:35 PM 48.2 °F 46.4 °F 93% 30.30 in 10.0 mi Calm Calm - N/A   Clear
9:55 PM 46.4 °F 46.4 °F 100% 30.31 in 7.0 mi Calm Calm - N/A   Clear
10:15 PM 46.4 °F 44.6 °F 93% 30.31 in 10.0 mi Calm Calm - N/A   Clear
10:35 PM 44.6 °F 42.8 °F 93% 30.32 in 2.0 mi Calm Calm - N/A   Clear
10:55 PM 44.6 °F 44.6 °F 100% 30.32 in 4.0 mi Calm Calm - N/A   Clear
11:15 PM 42.8 °F 42.8 °F 100% 30.32 in 7.0 mi Calm Calm - N/A   Clear
11:35 PM 41.0 °F 41.0 °F 100% 30.32 in 4.0 mi Calm Calm - N/A   Clear
11:55 PM 42.8 °F 42.8 °F 100% 30.32 in 0.2 mi Calm Calm - N/A Fog Fog